Voltar ao catálogo

NOAA 16 DEB

AtivoSSO
NORAD 41059·DEBRIS·🇺🇸 United States

Lançado Sep 21, 2000 de Vandenberg Space Force Base

Loading…

Próximas Passagens (próximas 24 horas)

TLE

AtualizadoSource: Space-Track

Época: Sep 14, 2026, 10:13 UTC

1 41059U 00055S   26257.42588823  .00000455  00000-0  23312-3 0  9999
2 41059  98.6155 325.8811 0021184  28.6467 331.5869 14.20071100558652

Acompanhe NOAA 16 DEB em tempo real com AllMySat

Download on the App Store